Location: Fort Worth, Tx
(32.7431°N, 97.3695°W)
Time: 18:00:07
(UTC-04:00)

A-11 Canister half - Pass Details

Date: 27 February 2024
Orbit: 1525 x 1683 km, 47.3° (Epoch: 21 April)

Event Time Altitude Azimuth Distance (km) Brightness Sun altitude
Exits shadow 03:25:49 11° 106° (ESE) 3,673 11.1 -55.9°
Drops below altitude 10° 03:26:04 10° 106° (ESE) 3,750 11.2 -55.9°
Sets 03:29:08 0° 111° (ESE) 4,712 11.8 -55.4°
